QPF
0.00 0.00 0.00 0.00 0.00 0.00 0.00 0.00 0.01 0.02 0.02 0.02 0.01 0.01 0.01 0.01 0.01 0.00 0.01 0.01 0.01 0.01 0.02 0.03 0.04 0.04 0.03 0.03 0.04 0.04 0.04 0.03 0.04 0.02 0.02 0.02 0.02 0.02 0.01 0.01 0.05 0.10 0.02
0.00 0.00 0.00 0.00 0.00 0.00 0.00 0.00 0.01 0.01 0.01 0.01 0.01 0.01 0.01 0.01 0.00 0.00 0.01 0.01 0.01 0.01 0.02 0.03 0.04 0.04 0.03 0.03 0.04 0.03 0.03 0.02 0.03 0.03 0.05 0.05 0.03 0.03 0.01 0.01 0.05 0.11 0.03
0.00 0.00 0.00 0.00 0.00 0.00 0.00 0.00 0.00 0.01 0.01 0.01 0.01 0.01 0.01 0.01 0.01 0.00 0.01 0.01 0.01 0.01 0.01 0.02 0.03 0.03 0.03 0.03 0.04 0.03 0.02 0.02 0.03 0.04 0.10 0.18 0.09 0.03 0.02 0.01 0.02 0.03 0.02
0.00 0.00 0.00 0.00 0.00 0.00 0.00 0.00 0.01 0.01 0.00 0.01 0.01 0.00 0.00 0.01 0.01 0.00 0.00 0.00 0.01 0.02 0.02 0.02 0.02 0.02 0.02 0.03 0.04 0.03 0.03 0.04 0.03 0.05 0.15 0.20 0.14 0.05 0.03 0.02 0.03 0.03 0.02
0.00 0.00 0.00 0.00 0.00 0.00 0.00 0.01 0.01 0.01 0.01 0.01 0.01 0.00 0.00 0.00 0.00 0.00 0.00 0.00 0.01 0.02 0.02 0.01 0.01 0.01 0.02 0.02 0.02 0.03 0.03 0.02 0.03 0.09 0.22 0.24 0.20 0.09 0.04 0.03 0.03 0.04 0.04
0.00 0.00 0.01 0.00 0.00 0.00 0.00 0.01 0.02 0.01 0.01 0.01 0.01 0.01 0.00 0.00 0.00 0.00 0.00 0.00 0.01 0.01 0.01 0.01 0.01 0.01 0.02 0.01 0.01 0.03 0.02 0.01 0.05 0.16 0.24 0.29 0.23 0.08 0.05 0.05 0.04 0.03 0.04
0.00 0.00 0.00 0.00 0.00 0.00 0.00 0.01 0.01 0.01 0.01 0.02 0.02 0.01 0.01 0.00 0.00 0.00 0.00 0.00 0.00 0.01 0.01 0.01 0.01 0.00 0.01 0.00 0.01 0.01 0.02 0.02 0.10 0.17 0.21 0.27 0.20 0.06 0.04 0.04 0.05 0.05 0.06
0.00 0.00 0.00 0.00 0.00 0.00 0.01 0.01 0.01 0.01 0.02 0.03 0.03 0.01 0.01 0.01 0.00 0.00 0.00 0.00 0.00 0.00 0.00 0.00 0.00 0.00 0.00 0.01 0.01 0.01 0.01 0.02 0.05 0.09 0.15 0.21 0.13 0.06 0.04 0.04 0.05 0.05 0.08
0.00 0.00 0.00 0.00 0.00 0.00 0.00 0.00 0.01 0.01 0.03 0.04 0.04 0.02 0.01 0.01 0.00 0.00 0.00 0.00 0.00 0.00 0.00 0.00 0.00 0.00 0.00 0.01 0.01 0.00 0.00 0.01 0.05 0.06 0.10 0.15 0.07 0.06 0.06 0.05 0.05 0.06 0.08
0.00 0.00 0.00 0.01 0.01 0.01 0.01 0.00 0.01 0.02 0.03 0.04 0.04 0.03 0.01 0.01 0.00 0.00 0.00 0.00 0.00 0.00 0.00 0.00 0.00 0.00 0.00 0.00 0.00 0.00 0.00 0.01 0.03 0.05 0.10 0.07 0.03 0.05 0.05 0.04 0.05 0.05 0.05
0.00 0.00 0.00 0.00 0.01 0.02 0.03 0.02 0.02 0.02 0.03 0.03 0.04 0.01 0.00 0.02 0.02 0.00 0.00 0.00 0.00 0.00 0.00 0.00 0.00 0.00 0.00 0.00 0.00 0.00 0.00 0.01 0.01 0.03 0.05 0.02 0.02 0.02 0.02 0.03 0.04 0.04 0.03
0.00 0.00 0.00 0.00 0.00 0.00 0.01 0.06 0.08 0.08 0.05 0.04 0.08 0.03 0.03 0.05 0.04 0.01 0.00 0.00 0.00 0.00 0.00 0.00 0.00 0.00 0.00 0.00 0.00 0.00 0.00 0.00 0.00 0.01 0.01 0.01 0.01 0.01 0.01 0.02 0.02 0.02 0.02
0.00 0.00 0.00 0.00 0.00 0.00 0.01 0.04 0.10 0.14 0.13 0.14 0.13 0.12 0.09 0.06 0.02 0.00 0.00 0.00 0.00 0.00 0.00 0.00 0.00 0.00 0.00 0.00 0.00 0.00 0.00 0.00 0.00 0.00 0.01 0.01 0.01 0.01 0.01 0.01 0.02 0.01 0.01
0.00 0.00 0.00 0.00 0.00 0.00 0.00 0.01 0.03 0.06 0.07 0.06 0.06 0.05 0.06 0.04 0.02 0.00 0.00 0.00 0.00 0.00 0.00 0.00 0.00 0.00 0.00 0.00 0.00 0.00 0.00 0.00 0.00 0.00 0.00 0.00 0.00 0.01 0.01 0.01 0.01 0.01 0.01
0.00 0.00 0.00 0.00 0.00 0.00 0.00 0.00 0.01 0.01 0.02 0.02 0.04 0.03 0.02 0.01 0.00 0.00 0.00 0.00 0.00 0.00 0.00 0.00 0.00 0.00 0.00 0.00 0.00 0.00 0.00 0.00 0.00 0.00 0.01 0.00 0.00 0.00 0.00 0.01 0.00 0.00 0.00
0.01 0.00 0.00 0.00 0.00 0.00 0.00 0.00 0.00 0.01 0.01 0.01 0.01 0.01 0.01 0.00 0.00 0.00 0.00 0.00 0.00 0.00 0.00 0.00 0.00 0.00 0.00 0.00 0.00 0.00 0.00 0.00 0.00 0.00 0.02 0.01 0.00 0.00 0.00 0.01 0.01 0.01 0.00
0.01 0.01 0.01 0.00 0.00 0.00 0.00 0.00 0.00 0.00 0.01 0.01 0.01 0.00 0.00 0.00 0.00 0.00 0.00 0.00 0.00 0.00 0.00 0.00 0.00 0.00 0.00 0.00 0.00 0.00 0.00 0.00 0.00 0.00 0.00 0.02 0.02 0.00 0.00 0.01 0.01 0.01 0.01
0.01 0.01 0.02 0.02 0.01 0.00 0.00 0.00 0.00 0.00 0.00 0.00 0.00 0.00 0.00 0.00 0.00 0.01 0.01 0.01 0.00 0.00 0.00 0.00 0.00 0.00 0.00 0.00 0.00 0.00 0.00 0.00 0.00 0.00 0.00 0.00 0.01 0.01 0.01 0.00 0.00 0.00 0.01
0.01 0.01 0.02 0.02 0.02 0.01 0.00 0.00 0.00 0.00 0.00 0.00 0.01 0.01 0.01 0.01 0.01 0.02 0.03 0.02 0.01 0.01 0.00 0.00 0.00 0.00 0.01 0.01 0.00 0.00 0.00 0.00 0.00 0.00 0.00 0.00 0.00 0.01 0.02 0.01 0.00 0.00 0.01
0.02 0.02 0.02 0.02 0.02 0.01 0.00 0.00 0.01 0.01 0.02 0.03 0.04 0.04 0.03 0.02 0.02 0.04 0.05 0.03 0.03 0.03 0.02 0.01 0.01 0.02 0.02 0.02 0.01 0.01 0.00 0.00 0.00 0.00 0.00 0.00 0.00 0.00 0.00 0.00 0.01 0.01 0.00
0.01 0.01 0.02 0.02 0.02 0.02 0.02 0.03 0.07 0.08 0.08 0.09 0.09 0.09 0.08 0.06 0.06 0.08 0.09 0.09 0.09 0.08 0.06 0.03 0.06 0.09 0.06 0.03 0.07 0.09 0.04 0.01 0.00 0.00 0.00 0.00 0.00 0.00 0.00 0.00 0.01 0.02 0.01
0.01 0.01 0.02 0.02 0.03 0.05 0.08 0.11 0.13 0.13 0.14 0.15 0.14 0.15 0.14 0.14 0.15 0.13 0.15 0.16 0.16 0.14 0.11 0.08 0.14 0.17 0.11 0.07 0.13 0.16 0.11 0.07 0.03 0.00 0.00 0.00 0.00 0.00 0.00 0.00 0.00 0.00 0.00
0.00 0.00 0.00 0.01 0.01 0.03 0.08 0.13 0.18 0.24 0.31 0.35 0.31 0.27 0.23 0.20 0.20 0.16 0.13 0.17 0.19 0.19 0.18 0.16 0.15 0.16 0.16 0.13 0.11 0.14 0.13 0.14 0.12 0.03 0.00 0.00 0.00 0.00 0.00 0.00 0.00 0.00 0.00
0.00 0.01 0.00 0.00 0.02 0.04 0.06 0.13 0.21 0.31 0.38 0.38 0.36 0.34 0.30 0.27 0.23 0.18 0.16 0.16 0.17 0.19 0.18 0.14 0.11 0.15 0.17 0.14 0.13 0.11 0.07 0.09 0.13 0.10 0.04 0.01 0.01 0.01 0.01 0.01 0.00 0.00 0.00
0.01 0.01 0.01 0.01 0.02 0.05 0.09 0.17 0.27 0.35 0.41 0.43 0.42 0.39 0.32 0.26 0.24 0.22 0.21 0.20 0.19 0.19 0.16 0.12 0.11 0.14 0.15 0.16 0.16 0.13 0.11 0.11 0.08 0.13 0.12 0.06 0.04 0.02 0.02 0.02 0.01 0.00 0.00
0.01 0.01 0.02 0.02 0.03 0.05 0.10 0.17 0.24 0.32 0.43 0.50 0.50 0.44 0.37 0.27 0.20 0.19 0.17 0.17 0.16 0.17 0.16 0.16 0.13 0.12 0.12 0.13 0.14 0.14 0.12 0.10 0.12 0.16 0.14 0.11 0.08 0.04 0.03 0.02 0.02 0.01 0.01
MSLP
1010.54 1010.51 1010.57 1010.74 1011.02 1011.35 1011.70 1012.02 1012.27 1012.45 1012.58 1012.69 1012.81 1012.96 1013.16 1013.37 1013.59 1013.78 1013.93 1014.01 1014.06 1014.08 1014.10 1014.13 1014.20 1014.29 1014.40 1014.50 1014.58 1014.65 1014.70 1014.75 1014.82 1014.92 1015.04 1015.17 1015.29 1015.38 1015.41 1015.38 1015.31 1015.22 1015.14
1010.37 1010.45 1010.63 1010.91 1011.26 1011.65 1012.01 1012.31 1012.53 1012.67 1012.77 1012.87 1012.99 1013.17 1013.39 1013.64 1013.89 1014.09 1014.24 1014.33 1014.36 1014.37 1014.38 1014.41 1014.46 1014.52 1014.60 1014.66 1014.70 1014.73 1014.76 1014.81 1014.89 1015.02 1015.18 1015.35 1015.49 1015.59 1015.61 1015.55 1015.44 1015.31 1015.20
1010.14 1010.33 1010.62 1011.00 1011.44 1011.88 1012.27 1012.57 1012.77 1012.90 1012.99 1013.07 1013.20 1013.39 1013.63 1013.89 1014.13 1014.33 1014.47 1014.54 1014.56 1014.56 1014.56 1014.59 1014.63 1014.69 1014.75 1014.79 1014.81 1014.82 1014.84 1014.88 1014.97 1015.12 1015.31 1015.50 1015.67 1015.77 1015.79 1015.72 1015.59 1015.44 1015.31
1009.88 1010.17 1010.56 1011.04 1011.56 1012.05 1012.47 1012.79 1013.00 1013.13 1013.21 1013.30 1013.43 1013.62 1013.85 1014.10 1014.33 1014.51 1014.62 1014.66 1014.67 1014.66 1014.67 1014.70 1014.76 1014.83 1014.90 1014.93 1014.94 1014.94 1014.94 1014.98 1015.08 1015.23 1015.43 1015.64 1015.82 1015.93 1015.95 1015.89 1015.76 1015.61 1015.48
1009.65 1010.01 1010.48 1011.04 1011.63 1012.17 1012.63 1012.97 1013.19 1013.32 1013.41 1013.51 1013.65 1013.84 1014.06 1014.30 1014.50 1014.65 1014.73 1014.76 1014.75 1014.74 1014.76 1014.81 1014.89 1014.98 1015.05 1015.10 1015.11 1015.10 1015.10 1015.13 1015.21 1015.36 1015.55 1015.76 1015.94 1016.06 1016.09 1016.05 1015.94 1015.81 1015.71
1009.48 1009.89 1010.42 1011.04 1011.67 1012.26 1012.75 1013.11 1013.34 1013.48 1013.58 1013.69 1013.83 1014.02 1014.24 1014.46 1014.65 1014.78 1014.84 1014.86 1014.85 1014.85 1014.88 1014.95 1015.05 1015.16 1015.25 1015.30 1015.32 1015.30 1015.29 1015.30 1015.37 1015.50 1015.67 1015.86 1016.04 1016.15 1016.20 1016.18 1016.11 1016.02 1015.96
1009.40 1009.84 1010.41 1011.05 1011.72 1012.32 1012.82 1013.19 1013.43 1013.58 1013.69 1013.81 1013.95 1014.15 1014.37 1014.59 1014.78 1014.91 1014.98 1015.00 1015.00 1015.02 1015.06 1015.15 1015.25 1015.37 1015.46 1015.51 1015.52 1015.50 1015.48 1015.48 1015.52 1015.63 1015.78 1015.95 1016.10 1016.22 1016.28 1016.29 1016.25 1016.21 1016.19
1009.39 1009.84 1010.42 1011.08 1011.75 1012.36 1012.86 1013.23 1013.47 1013.62 1013.73 1013.85 1014.01 1014.22 1014.45 1014.68 1014.89 1015.04 1015.13 1015.18 1015.21 1015.24 1015.30 1015.38 1015.48 1015.58 1015.66 1015.69 1015.69 1015.66 1015.62 1015.61 1015.64 1015.73 1015.86 1016.01 1016.15 1016.27 1016.34 1016.37 1016.37 1016.37 1016.39
1009.42 1009.86 1010.43 1011.09 1011.74 1012.34 1012.83 1013.19 1013.43 1013.58 1013.70 1013.83 1014.00 1014.21 1014.46 1014.72 1014.96 1015.14 1015.28 1015.36 1015.42 1015.47 1015.53 1015.60 1015.68 1015.74 1015.78 1015.79 1015.76 1015.72 1015.68 1015.66 1015.70 1015.78 1015.91 1016.05 1016.19 1016.31 1016.39 1016.43 1016.46 1016.49 1016.53
1009.41 1009.84 1010.40 1011.03 1011.67 1012.25 1012.72 1013.07 1013.31 1013.47 1013.59 1013.73 1013.91 1014.13 1014.40 1014.68 1014.95 1015.18 1015.36 1015.49 1015.58 1015.65 1015.70 1015.75 1015.78 1015.80 1015.79 1015.76 1015.70 1015.65 1015.62 1015.63 1015.69 1015.79 1015.93 1016.09 1016.24 1016.37 1016.45 1016.51 1016.55 1016.59 1016.64
1009.32 1009.73 1010.25 1010.86 1011.47 1012.03 1012.50 1012.85 1013.10 1013.27 1013.41 1013.56 1013.75 1013.98 1014.26 1014.56 1014.85 1015.11 1015.32 1015.49 1015.61 1015.69 1015.74 1015.77 1015.76 1015.73 1015.67 1015.60 1015.53 1015.48 1015.47 1015.51 1015.61 1015.77 1015.95 1016.14 1016.32 1016.46 1016.56 1016.62 1016.66 1016.70 1016.74
1009.11 1009.49 1009.98 1010.55 1011.13 1011.68 1012.14 1012.51 1012.78 1012.98 1013.16 1013.33 1013.53 1013.77 1014.04 1014.33 1014.63 1014.90 1015.14 1015.34 1015.49 1015.59 1015.64 1015.64 1015.60 1015.53 1015.44 1015.34 1015.27 1015.23 1015.26 1015.35 1015.51 1015.73 1015.97 1016.21 1016.42 1016.59 1016.71 1016.78 1016.82 1016.84 1016.86
1008.78 1009.13 1009.58 1010.11 1010.66 1011.19 1011.66 1012.05 1012.37 1012.62 1012.84 1013.04 1013.25 1013.49 1013.75 1014.02 1014.30 1014.57 1014.82 1015.03 1015.20 1015.32 1015.38 1015.39 1015.35 1015.26 1015.16 1015.06 1014.99 1014.98 1015.05 1015.19 1015.42 1015.69 1015.99 1016.29 1016.55 1016.75 1016.89 1016.97 1017.00 1017.01 1017.01
1008.39 1008.69 1009.10 1009.57 1010.09 1010.59 1011.07 1011.50 1011.87 1012.19 1012.46 1012.71 1012.94 1013.17 1013.40 1013.64 1013.89 1014.14 1014.38 1014.60 1014.80 1014.95 1015.04 1015.08 1015.06 1015.00 1014.91 1014.83 1014.78 1014.80 1014.90 1015.09 1015.36 1015.69 1016.03 1016.37 1016.66 1016.90 1017.06 1017.16 1017.20 1017.21 1017.19
1008.02 1008.27 1008.61 1009.02 1009.48 1009.95 1010.43 1010.89 1011.32 1011.70 1012.04 1012.34 1012.60 1012.83 1013.03 1013.24 1013.44 1013.66 1013.89 1014.12 1014.34 1014.54 1014.69 1014.79 1014.82 1014.81 1014.77 1014.72 1014.71 1014.76 1014.88 1015.09 1015.38 1015.72 1016.08 1016.43 1016.74 1017.00 1017.18 1017.30 1017.36 1017.38 1017.38
1007.76 1007.95 1008.21 1008.53 1008.91 1009.34 1009.79 1010.27 1010.74 1011.19 1011.59 1011.95 1012.24 1012.47 1012.66 1012.84 1013.01 1013.19 1013.41 1013.66 1013.92 1014.17 1014.40 1014.59 1014.71 1014.77 1014.79 1014.80 1014.82 1014.88 1015.00 1015.20 1015.46 1015.78 1016.11 1016.45 1016.75 1017.01 1017.21 1017.35 1017.44 1017.49 1017.52
1007.69 1007.81 1007.97 1008.19 1008.47 1008.81 1009.22 1009.68 1010.17 1010.66 1011.13 1011.54 1011.87 1012.13 1012.32 1012.48 1012.63 1012.81 1013.03 1013.29 1013.60 1013.93 1014.25 1014.53 1014.75 1014.90 1015.00 1015.05 1015.09 1015.16 1015.25 1015.41 1015.61 1015.86 1016.13 1016.41 1016.67 1016.91 1017.11 1017.27 1017.40 1017.50 1017.57
1007.83 1007.88 1007.94 1008.04 1008.18 1008.41 1008.74 1009.15 1009.64 1010.15 1010.66 1011.12 1011.50 1011.80 1012.02 1012.20 1012.36 1012.54 1012.77 1013.07 1013.43 1013.83 1014.23 1014.61 1014.93 1015.17 1015.33 1015.44 1015.50 1015.55 1015.60 1015.69 1015.81 1015.96 1016.13 1016.33 1016.52 1016.72 1016.90 1017.07 1017.24 1017.39 1017.53
1008.19 1008.17 1008.12 1008.07 1008.08 1008.17 1008.38 1008.72 1009.16 1009.67 1010.20 1010.71 1011.15 1011.50 1011.78 1011.99 1012.18 1012.40 1012.67 1013.01 1013.41 1013.87 1014.35 1014.80 1015.20 1015.51 1015.74 1015.88 1015.95 1015.98 1015.99 1016.00 1016.02 1016.07 1016.14 1016.23 1016.35 1016.48 1016.63 1016.80 1016.99 1017.18 1017.38
1008.71 1008.61 1008.46 1008.28 1008.13 1008.08 1008.16 1008.38 1008.75 1009.23 1009.77 1010.32 1010.82 1011.24 1011.58 1011.87 1012.12 1012.38 1012.69 1013.07 1013.52 1014.01 1014.53 1015.04 1015.49 1015.85 1016.12 1016.29 1016.37 1016.38 1016.35 1016.30 1016.25 1016.20 1016.17 1016.17 1016.19 1016.26 1016.37 1016.51 1016.70 1016.93 1017.17
1009.33 1009.16 1008.91 1008.61 1008.32 1008.11 1008.05 1008.15 1008.44 1008.87 1009.40 1009.97 1010.52 1011.02 1011.45 1011.81 1012.13 1012.45 1012.81 1013.21 1013.68 1014.19 1014.72 1015.24 1015.71 1016.10 1016.38 1016.57 1016.67 1016.68 1016.64 1016.56 1016.45 1016.34 1016.24 1016.16 1016.12 1016.12 1016.17 1016.28 1016.45 1016.67 1016.94
1009.97 1009.75 1009.41 1009.00 1008.59 1008.25 1008.05 1008.04 1008.23 1008.60 1009.10 1009.69 1010.29 1010.85 1011.36 1011.80 1012.20 1012.58 1012.97 1013.39 1013.85 1014.34 1014.85 1015.35 1015.80 1016.18 1016.48 1016.68 1016.80 1016.83 1016.81 1016.73 1016.62 1016.49 1016.36 1016.24 1016.14 1016.08 1016.08 1016.14 1016.26 1016.46 1016.72
1010.61 1010.33 1009.93 1009.44 1008.93 1008.48 1008.17 1008.06 1008.15 1008.46 1008.93 1009.51 1010.13 1010.75 1011.32 1011.84 1012.29 1012.71 1013.12 1013.53 1013.97 1014.42 1014.87 1015.32 1015.73 1016.08 1016.37 1016.58 1016.73 1016.80 1016.82 1016.79 1016.73 1016.62 1016.51 1016.38 1016.26 1016.16 1016.10 1016.10 1016.17 1016.31 1016.53
1011.23 1010.90 1010.45 1009.91 1009.33 1008.81 1008.42 1008.22 1008.24 1008.47 1008.90 1009.46 1010.09 1010.73 1011.33 1011.89 1012.38 1012.82 1013.22 1013.61 1013.99 1014.37 1014.76 1015.13 1015.48 1015.80 1016.07 1016.29 1016.47 1016.60 1016.69 1016.73 1016.74 1016.70 1016.63 1016.53 1016.42 1016.30 1016.20 1016.14 1016.14 1016.21 1016.37
1011.84 1011.47 1010.98 1010.41 1009.81 1009.25 1008.80 1008.54 1008.49 1008.66 1009.03 1009.55 1010.15 1010.78 1011.39 1011.94 1012.43 1012.86 1013.24 1013.58 1013.90 1014.22 1014.52 1014.82 1015.11 1015.37 1015.62 1015.85 1016.06 1016.25 1016.41 1016.54 1016.64 1016.69 1016.69 1016.64 1016.55 1016.43 1016.31 1016.19 1016.13 1016.13 1016.21
1012.46 1012.05 1011.55 1010.97 1010.36 1009.78 1009.32 1009.02 1008.92 1009.03 1009.33 1009.78 1010.32 1010.90 1011.47 1011.99 1012.44 1012.84 1013.17 1013.45 1013.71 1013.96 1014.19 1014.42 1014.65 1014.87 1015.10 1015.33 1015.56 1015.80 1016.02 1016.23 1016.41 1016.55 1016.63 1016.64 1016.59 1016.49 1016.35 1016.20 1016.08 1016.01 1016.02
Thickness
5817 5815 5809 5806 5803 5801 5798 5795 5792 5790 5788 5785 5783 5781 5780 5778 5777 5776 5775 5775 5774 5775 5775 5775 5776 5776 5777 5777 5777 5778 5778 5778 5778 5778 5778 5779 5779 5780 5780 5781 5782 5782 5783
5823 5816 5810 5807 5804 5801 5798 5795 5792 5789 5787 5785 5783 5781 5779 5777 5776 5775 5774 5774 5773 5773 5773 5773 5774 5774 5774 5775 5775 5775 5775 5775 5776 5776 5776 5776 5776 5777 5777 5778 5779 5779 5780
5824 5816 5811 5807 5804 5800 5798 5795 5792 5789 5787 5784 5782 5780 5779 5777 5776 5774 5773 5773 5772 5772 5772 5772 5772 5772 5772 5772 5773 5773 5773 5773 5773 5773 5773 5773 5773 5773 5774 5775 5776 5777 5777
5824 5816 5812 5807 5804 5801 5798 5795 5792 5789 5786 5784 5782 5780 5778 5777 5775 5774 5773 5772 5771 5771 5770 5770 5770 5770 5770 5770 5770 5770 5770 5770 5770 5770 5770 5770 5770 5770 5771 5772 5773 5773 5774
5824 5818 5812 5807 5804 5800 5798 5795 5792 5789 5787 5784 5782 5780 5778 5777 5775 5774 5772 5771 5770 5769 5769 5768 5768 5768 5768 5768 5768 5768 5768 5769 5769 5768 5768 5767 5767 5767 5768 5768 5769 5770 5771
5824 5818 5810 5807 5803 5800 5797 5795 5792 5790 5787 5784 5782 5780 5778 5777 5775 5773 5772 5770 5769 5768 5767 5767 5766 5766 5766 5766 5766 5766 5766 5767 5767 5767 5766 5765 5764 5764 5765 5766 5767 5768 5768
5824 5817 5810 5806 5803 5800 5797 5795 5792 5790 5787 5785 5782 5780 5778 5777 5775 5773 5771 5769 5768 5767 5766 5765 5765 5765 5765 5764 5764 5764 5764 5765 5766 5766 5765 5764 5763 5763 5763 5764 5764 5765 5766
5825 5818 5810 5805 5802 5800 5797 5795 5792 5790 5787 5785 5782 5780 5778 5776 5774 5772 5770 5769 5767 5766 5765 5764 5763 5763 5763 5763 5763 5763 5764 5764 5767 5767 5765 5763 5762 5762 5762 5762 5762 5763 5763
5827 5820 5811 5806 5802 5799 5796 5794 5792 5789 5787 5785 5782 5780 5778 5776 5774 5772 5770 5768 5766 5765 5764 5763 5762 5762 5761 5761 5761 5762 5763 5764 5766 5766 5764 5762 5761 5761 5760 5760 5760 5761 5761
5829 5822 5816 5810 5805 5800 5797 5794 5791 5789 5786 5784 5782 5779 5777 5775 5773 5771 5769 5767 5766 5764 5763 5762 5761 5760 5760 5760 5760 5761 5762 5763 5765 5764 5761 5760 5760 5759 5759 5758 5758 5759 5759
5827 5824 5820 5815 5810 5805 5800 5796 5791 5788 5786 5783 5781 5779 5777 5775 5774 5771 5770 5767 5765 5764 5763 5762 5761 5760 5759 5759 5760 5761 5761 5763 5764 5762 5759 5758 5757 5757 5757 5757 5757 5757 5756
5823 5824 5822 5818 5813 5808 5804 5797 5793 5789 5786 5783 5782 5779 5777 5777 5776 5773 5769 5767 5765 5764 5762 5762 5761 5760 5759 5760 5760 5761 5761 5764 5765 5760 5756 5756 5755 5755 5755 5754 5754 5754 5754
5826 5825 5824 5820 5815 5810 5805 5799 5795 5791 5787 5784 5783 5781 5779 5779 5776 5772 5769 5766 5764 5763 5763 5763 5762 5762 5762 5762 5763 5763 5763 5764 5763 5757 5754 5753 5753 5752 5752 5752 5752 5752 5752
5826 5823 5824 5821 5816 5811 5807 5802 5797 5792 5788 5786 5783 5781 5780 5779 5778 5776 5772 5768 5767 5765 5765 5764 5765 5765 5766 5766 5766 5765 5763 5761 5759 5754 5751 5750 5750 5750 5750 5750 5750 5750 5750
5825 5823 5822 5821 5817 5813 5809 5803 5799 5795 5791 5789 5785 5783 5781 5779 5777 5777 5775 5771 5770 5769 5767 5766 5767 5767 5766 5765 5764 5762 5761 5759 5757 5753 5749 5748 5747 5747 5747 5747 5747 5747 5747
5824 5822 5822 5819 5817 5814 5809 5804 5800 5797 5792 5790 5785 5783 5780 5778 5776 5775 5773 5771 5769 5768 5767 5766 5766 5764 5763 5762 5760 5758 5757 5756 5753 5751 5747 5745 5744 5743 5743 5744 5744 5744 5744
5822 5822 5820 5818 5816 5813 5809 5804 5801 5796 5792 5789 5784 5782 5780 5778 5775 5772 5770 5767 5766 5766 5765 5764 5763 5762 5760 5758 5756 5755 5754 5753 5751 5750 5747 5744 5741 5740 5740 5740 5740 5740 5741
5818 5818 5818 5817 5814 5811 5808 5804 5799 5795 5792 5788 5784 5780 5779 5777 5773 5771 5767 5765 5764 5763 5762 5759 5758 5755 5754 5752 5751 5751 5751 5749 5749 5748 5747 5744 5741 5739 5737 5736 5736 5736 5736
5811 5812 5812 5813 5809 5807 5805 5801 5798 5794 5790 5786 5782 5778 5776 5774 5771 5768 5765 5762 5761 5760 5757 5755 5752 5750 5747 5746 5746 5746 5747 5745 5745 5745 5745 5744 5741 5738 5735 5733 5732 5732 5732
5802 5804 5805 5806 5805 5804 5801 5797 5793 5788 5786 5783 5779 5775 5772 5769 5767 5765 5760 5758 5756 5753 5750 5749 5747 5745 5743 5742 5742 5742 5742 5742 5742 5741 5742 5741 5740 5737 5734 5731 5730 5728 5728
5789 5792 5794 5795 5797 5798 5794 5787 5782 5778 5777 5776 5774 5771 5767 5763 5761 5758 5755 5752 5749 5745 5743 5742 5740 5738 5736 5737 5733 5730 5733 5737 5738 5737 5737 5737 5737 5735 5732 5730 5728 5726 5724
5773 5777 5781 5785 5787 5789 5789 5786 5781 5777 5772 5769 5767 5764 5760 5756 5753 5751 5748 5745 5742 5739 5736 5735 5733 5730 5730 5731 5725 5719 5716 5720 5728 5734 5733 5731 5732 5731 5730 5729 5727 5725 5723
5758 5763 5768 5772 5777 5780 5782 5780 5776 5770 5764 5758 5756 5754 5753 5750 5746 5743 5741 5739 5736 5733 5729 5728 5728 5725 5722 5724 5725 5718 5710 5707 5715 5724 5729 5729 5728 5727 5726 5727 5726 5724 5723
5745 5751 5756 5760 5765 5770 5773 5770 5765 5759 5752 5751 5749 5746 5744 5742 5739 5737 5734 5732 5730 5728 5725 5724 5725 5724 5721 5718 5719 5720 5719 5716 5709 5708 5717 5723 5724 5723 5722 5723 5722 5721 5720
5732 5738 5743 5748 5752 5758 5761 5761 5758 5753 5747 5743 5741 5737 5734 5733 5731 5729 5727 5726 5724 5723 5721 5721 5721 5721 5720 5717 5715 5715 5714 5713 5712 5705 5702 5709 5714 5717 5718 5718 5717 5715 5714
5719 5724 5730 5734 5738 5744 5748 5749 5747 5743 5738 5733 5730 5726 5724 5723 5721 5721 5721 5719 5718 5717 5717 5717 5717 5717 5718 5716 5714 5713 5710 5707 5706 5703 5699 5699 5701 5707 5713 5714 5712 5711 5710